Location: Bennemühlen
(52.5740°N, 9.7135°E)
Time: 15:57:37
(UTC+00:00)

SR - Pass Details

Date: 17 February 2026
Orbit: 572 x 848 km, 66.7° (Epoch: 8 March)

Event Time Altitude Azimuth Distance (km) Brightness Sun altitude
Exits shadow 03:51:13 23° 159° (SSE) 1,264 ? -25.2°
Maximum altitude 03:52:59 32° 116° (ESE) 1,029 ? -24.9°
Drops below altitude 10° 03:56:56 10° 54° (NE) 1,991 ? -24.3°
Sets 03:59:26 0° 44° (NE) 2,943 ? -24.0°
